Weather History for KJMR - January, 2013

Change the Weather History Date:

Tuesday, January 1, 2013

  Actual Average (WUND) Record (WUND)
Temperature  
Mean Temperature 0 °F -  
Max Temperature 15 °F - - (-1)
Min Temperature -14 °F - - (-1)
Degree Days  
Heating Degree Days 64    
Moisture  
Dew Point -5 °F    
Average Humidity 77    
Maximum Humidity 86    
Minimum Humidity 67    
Precipitation  
Precipitation 0.00 in - - ()
Sea Level Pressure  
Sea Level Pressure 30.14 in    
Wind  
Wind Speed 2 mph (SSW)    
Max Wind Speed 8 mph    
Max Gust Speed -    
Visibility 10 miles    
Events Snow    
Averages and records for this station are not official NWS values.
T = Trace of Precipitation, MM = Missing Value Source: NWS Daily Summary

Daily Weather History Graph

Daily Weather History Graph

Search for Another Location

Airport or City:

Trip Planner

Search our weather history database for the weather conditions in past years. The results will help you decide how hot, cold, wet, or windy it might be!

Date:

Astronomy

Jan. 01, 2013 Rise Set
Actual Time 7:54 AM CST 4:39 PM CST
Civil Twilight 7:20 AM CST 5:13 PM CST
Nautical Twilight 6:42 AM CST 5:51 PM CST
Astronomical Twilight 6:06 AM CST 6:27 PM CST
Moon 9:26 PM CST (1/1) 9:53 AM CST (1/1)
Length of Visible Light 9h 53m
Length of Day
8h 44m
Waning Gibbous, 83% of the Moon is Illuminated
Jan 1
Waning Gibbous
Jan 4
Last Quarter
Jan 11
New
Jan 18
First Quarter
Jan 26
Full

Hourly Weather History & Observations

Time (CST) Temp. Windchill Dew Point Humidity Pressure Visibility Wind Dir Wind Speed Gust Speed Precip Events Conditions
12:02 AM -9.4 °F - -14.8 °F 77% 30.24 in 10.0 mi Calm Calm - N/A   Clear
12:22 AM -9.4 °F - -16.6 °F 71% 30.24 in 10.0 mi Calm Calm - N/A   Clear
12:42 AM -9.4 °F - -16.6 °F 71% 30.24 in 10.0 mi Calm Calm - N/A   Clear
1:02 AM -11.2 °F - -16.6 °F 77% 30.24 in 10.0 mi Calm Calm - N/A   Clear
1:22 AM -11.2 °F - -16.6 °F 77% 30.24 in 10.0 mi Calm Calm - N/A   Clear
1:42 AM -13.0 °F - -16.6 °F 84% 30.24 in 10.0 mi Calm Calm - N/A   Clear
2:02 AM -13.0 °F - -18.4 °F 77% 30.23 in 10.0 mi Calm Calm - N/A   Clear
2:22 AM -13.0 °F - -18.4 °F 77% 30.23 in 10.0 mi Calm Calm - N/A   Clear
2:42 AM -13.0 °F - -18.4 °F 77% 30.24 in 10.0 mi Calm Calm - N/A   Clear
3:02 AM -13.0 °F - -18.4 °F 77% 30.24 in 10.0 mi Calm Calm - N/A   Clear
3:22 AM -13.0 °F - -18.4 °F 77% 30.24 in 10.0 mi Calm Calm - N/A   Clear
3:42 AM -13.0 °F - -18.4 °F 77% 30.23 in 10.0 mi Calm Calm - N/A   Clear
4:02 AM -13.0 °F - -18.4 °F 77% 30.22 in 10.0 mi Calm Calm - N/A   Clear
4:22 AM -13.0 °F - -18.4 °F 77% 30.23 in 10.0 mi Calm Calm - N/A   Clear
4:42 AM -13.0 °F - -18.4 °F 77% 30.24 in 10.0 mi Calm Calm - N/A   Clear
5:02 AM -13.0 °F - -18.4 °F 77% 30.23 in 10.0 mi Calm Calm - N/A   Clear
5:22 AM -14.8 °F - -20.2 °F 77% 30.24 in 10.0 mi Calm Calm - N/A   Clear
5:42 AM -13.0 °F - -18.4 °F 77% 30.24 in 10.0 mi Calm Calm - N/A   Clear
6:02 AM -13.0 °F - -18.4 °F 77% 30.24 in 10.0 mi Calm Calm - N/A   Clear
6:22 AM -14.8 °F - -22.0 °F 70% 30.23 in 10.0 mi Calm Calm - N/A   Clear
6:42 AM -14.8 °F - -22.0 °F 70% 30.23 in 10.0 mi Calm Calm - N/A   Clear
7:02 AM -14.8 °F - -22.0 °F 70% 30.23 in 10.0 mi Calm Calm - N/A   Clear
7:22 AM -14.8 °F - -22.0 °F 70% 30.22 in 10.0 mi Calm Calm - N/A   Clear
7:42 AM -14.8 °F - -22.0 °F 70% 30.22 in 10.0 mi Calm Calm - N/A   Clear
8:02 AM -14.8 °F - -22.0 °F 70% 30.22 in 10.0 mi Calm Calm - N/A   Clear
8:22 AM -14.8 °F - -22.0 °F 70% 30.22 in 10.0 mi Calm Calm - N/A   Clear
8:42 AM -13.0 °F - -18.4 °F 77% 30.21 in 4.0 mi Calm Calm - N/A   Haze
9:02 AM -11.2 °F - -16.6 °F 77% 30.21 in 10.0 mi Calm Calm - N/A   Clear
9:22 AM -7.6 °F - -14.8 °F 71% 30.21 in 10.0 mi Calm Calm - N/A   Clear
9:42 AM -7.6 °F - -13.0 °F 77% 30.20 in 7.0 mi Calm Calm - N/A Snow Light Snow
10:02 AM -4.0 °F - -9.4 °F 78% 30.20 in 7.0 mi Calm Calm - N/A Snow Light Snow
10:22 AM -0.4 °F -10.4 °F -5.8 °F 78% 30.19 in 10.0 mi SSW 4.6 mph - N/A Snow Light Snow
10:41 AM 1.4 °F -8.3 °F -4.0 °F 78% 30.19 in 7.0 mi SW 4.6 mph - N/A Snow Light Snow
11:02 AM 3.2 °F -6.2 °F -2.2 °F 78% 30.18 in 10.0 mi WSW 4.6 mph - N/A Snow Light Snow
11:22 AM 5.0 °F -4.1 °F -0.4 °F 78% 30.17 in 10.0 mi SW 4.6 mph - N/A   Overcast
11:42 AM 6.8 °F -2.0 °F -0.4 °F 72% 30.16 in 10.0 mi SW 4.6 mph - N/A   Overcast
12:02 PM 6.8 °F -4.8 °F -0.4 °F 72% 30.15 in 10.0 mi SW 6.9 mph - N/A   Overcast
12:22 PM 6.8 °F -5.9 °F -0.4 °F 72% 30.14 in 10.0 mi SSW 8.1 mph - N/A   Overcast
12:42 PM 6.8 °F -3.5 °F -0.4 °F 72% 30.13 in 10.0 mi SW 5.8 mph - N/A   Overcast
1:02 PM 6.8 °F -3.5 °F -0.4 °F 72% 30.12 in 10.0 mi SW 5.8 mph - N/A   Overcast
1:22 PM 6.8 °F -3.5 °F -0.4 °F 72% 30.12 in 10.0 mi SW 5.8 mph - N/A   Overcast
1:42 PM 8.6 °F -1.3 °F -0.4 °F 67% 30.10 in 10.0 mi SW 5.8 mph - N/A   Overcast
2:02 PM 8.6 °F -1.3 °F 1.4 °F 73% 30.10 in 10.0 mi SSW 5.8 mph - N/A   Overcast
2:22 PM 8.6 °F -2.6 °F 1.4 °F 73% 30.10 in 10.0 mi SW 6.9 mph - N/A   Overcast
2:42 PM 10.4 °F -0.4 °F 3.2 °F 73% 30.10 in 10.0 mi SW 6.9 mph - N/A   Overcast
3:02 PM 10.4 °F 0.8 °F 3.2 °F 73% 30.10 in 10.0 mi SW 5.8 mph - N/A   Overcast
3:22 PM 10.4 °F 0.8 °F 3.2 °F 73% 30.10 in 10.0 mi SW 5.8 mph - N/A   Overcast
3:42 PM 12.2 °F 4.3 °F 5.0 °F 73% 30.10 in 10.0 mi SW 4.6 mph - N/A   Overcast
4:02 PM 12.2 °F 2.9 °F 5.0 °F 73% 30.10 in 10.0 mi SSW 5.8 mph - N/A   Overcast
4:22 PM 12.2 °F 4.3 °F 5.0 °F 73% 30.10 in 10.0 mi SSW 4.6 mph - N/A   Overcast
4:42 PM 12.2 °F 4.3 °F 5.0 °F 73% 30.09 in 10.0 mi SSW 4.6 mph - N/A   Overcast
5:02 PM 12.2 °F 2.9 °F 5.0 °F 73% 30.09 in 10.0 mi SSW 5.8 mph - N/A   Overcast
5:22 PM 12.2 °F 1.7 °F 6.8 °F 79% 30.09 in 10.0 mi SW 6.9 mph - N/A   Overcast
5:42 PM 12.2 °F 2.9 °F 8.6 °F 85% 30.08 in 10.0 mi SSW 5.8 mph - N/A   Overcast
6:02 PM 12.2 °F 1.7 °F 8.6 °F 85% 30.07 in 10.0 mi SSW 6.9 mph - N/A   Overcast
6:22 PM 14.0 °F 5.1 °F 8.6 °F 79% 30.07 in 10.0 mi SW 5.8 mph - N/A   Overcast
6:42 PM 14.0 °F 5.1 °F 8.6 °F 79% 30.06 in 10.0 mi SSW 5.8 mph - N/A   Overcast
7:01 PM 14.0 °F 5.1 °F 8.6 °F 79% 30.06 in 10.0 mi SSW 5.8 mph - N/A   Overcast
7:22 PM 14.0 °F 5.1 °F 8.6 °F 79% 30.05 in 10.0 mi SSW 5.8 mph - N/A   Overcast
7:41 PM 14.0 °F 3.9 °F 8.6 °F 79% 30.05 in 10.0 mi SSW 6.9 mph - N/A   Overcast
8:02 PM 14.0 °F 8.2 °F 8.6 °F 79% 30.04 in 10.0 mi South 3.5 mph - N/A   Overcast
8:22 PM 14.0 °F 8.2 °F 8.6 °F 79% 30.03 in 10.0 mi South 3.5 mph - N/A   Overcast
8:41 PM 14.0 °F 5.1 °F 10.4 °F 86% 30.03 in 10.0 mi South 5.8 mph - N/A   Overcast
9:02 PM 14.0 °F 6.5 °F 10.4 °F 86% 30.02 in 10.0 mi SSW 4.6 mph - N/A   Overcast
9:21 PM 14.0 °F 6.5 °F 10.4 °F 86% 30.02 in 10.0 mi South 4.6 mph - N/A   Overcast
9:42 PM 14.0 °F 6.5 °F 10.4 °F 86% 30.02 in 10.0 mi South 4.6 mph - N/A   Overcast
10:02 PM 14.0 °F 6.5 °F 10.4 °F 86% 30.01 in 10.0 mi South 4.6 mph - N/A   Overcast
10:22 PM 14.0 °F 8.2 °F 10.4 °F 86% 30.01 in 10.0 mi South 3.5 mph - N/A   Overcast
10:42 PM 14.0 °F 8.2 °F 10.4 °F 86% 30.00 in 10.0 mi South 3.5 mph - N/A   Overcast
11:02 PM 14.0 °F 8.2 °F 10.4 °F 86% 30.00 in 10.0 mi South 3.5 mph - N/A   Overcast
11:22 PM 15.8 °F 8.6 °F 12.2 °F 86% 30.00 in 10.0 mi South 4.6 mph - N/A   Overcast
11:42 PM 15.8 °F 8.6 °F 12.2 °F 86% 30.00 in 10.0 mi South 4.6 mph - N/A   Overcast